When you browse on this site, cookies collect data to enhance your experience and personalize the content and advertising you see.
Visit our Privacy Policy to learn more. By continuing to use the site, you agree to this use of cookies and data.
  • în România
  • Lista ţărilor
  • Pe 7 zile
  • Temperatura apei
  • Hartă satelitară
  • Meteo pe hartă
  • Widget-uri
  • user-avatar
    Intrare

    Meteo pe oră la Warwick

    Astăzi, 20 Ianuarie, Duminică

    Timp Temperatura Precipitaţii Vânt Presiune Umiditate
    00:00 +3°C° 0 mm 1 m/s 753 mmHg 94%
    01:00 +3°C° 0 mm 1 m/s 753 mmHg 93%
    02:00 +3°C° 0 mm 1 m/s 754 mmHg 93%
    03:00 +2°C° 0 mm 1 m/s 754 mmHg 93%
    04:00 +2°C° 0 mm 1 m/s 754 mmHg 92%
    05:00 +1°C° 0 mm 1 m/s 755 mmHg 92%
    06:00 +1°C° 0 mm 1 m/s 755 mmHg 92%
    07:00 +1°C° 0 mm 1 m/s 756 mmHg 91%
    08:00 +1°C° 0 mm 1 m/s 756 mmHg 90%
    09:00 +1°C° 0 mm 1 m/s 757 mmHg 89%
    10:00 +2°C° 0 mm 1 m/s 758 mmHg 85%
    11:00 +2°C° 0 mm 0 m/s 758 mmHg 81%
    12:00 +3°C° 0 mm 0 m/s 759 mmHg 77%
    13:00 +5°C° 0 mm 1 m/s 759 mmHg 80%
    14:00 +5°C° 0 mm 1 m/s 759 mmHg 82%
    15:00 +5°C° 0 mm 1 m/s 759 mmHg 85%
    16:00 +4°C° 0 mm 1 m/s 760 mmHg 87%
    17:00 +3°C° 0 mm 1 m/s 760 mmHg 90%
    18:00 +2°C° 0 mm 1 m/s 761 mmHg 93%
    19:00 +2°C° 0 mm 1 m/s 761 mmHg 93%
    20:00 +2°C° 0 mm 1 m/s 762 mmHg 94%
    21:00 +2°C° 0 mm 1 m/s 762 mmHg 95%
    22:00 +2°C° 0 mm 1 m/s 763 mmHg 95%
    23:00 +2°C° 0 mm 1 m/s 763 mmHg 95%

    Mâine, 21 Ianuarie, Luni

    Timp Temperatura Precipitaţii Vânt Presiune Umiditate
    00:00 +2°C° 0 mm 1 m/s 763 mmHg 94%
    01:00 +2°C° 0 mm 1 m/s 763 mmHg 95%
    02:00 +2°C° 0 mm 1 m/s 763 mmHg 95%
    03:00 +2°C° 0 mm 1 m/s 763 mmHg 95%
    04:00 +2°C° 0 mm 1 m/s 763 mmHg 95%
    05:00 +2°C° 0 mm 1 m/s 763 mmHg 95%
    06:00 0°C° 0 mm 0 m/s 763 mmHg 96%
    07:00 +1°C° 0 mm 0 m/s 763 mmHg 95%
    08:00 +2°C° 0 mm 1 m/s 763 mmHg 95%
    09:00 +3°C° 0 mm 1 m/s 763 mmHg 95%
    10:00 +4°C° 0 mm 1 m/s 762 mmHg 93%
    11:00 +4°C° 0 mm 2 m/s 761 mmHg 91%
    12:00 +3°C° 0 mm 3 m/s 761 mmHg 88%
    13:00 +3°C° 0 mm 3 m/s 760 mmHg 88%
    14:00 +3°C° 0 mm 4 m/s 759 mmHg 88%
    15:00 +4°C° 0 mm 4 m/s 758 mmHg 87%
    16:00 +3°C° 0 mm 5 m/s 757 mmHg 88%
    17:00 +2°C° 0 mm 5 m/s 756 mmHg 89%
    18:00 +2°C° 0 mm 5 m/s 756 mmHg 91%
    19:00 +2°C° 0.1 mm 6 m/s 754 mmHg 90%
    20:00 +3°C° 0.1 mm 6 m/s 753 mmHg 90%
    21:00 +3°C° 0.1 mm 7 m/s 751 mmHg 90%
    22:00 +2°C° 0.8 mm 8 m/s 750 mmHg 89%
    23:00 +2°C° 0.8 mm 8 m/s 749 mmHg 89%

    Poimâine, 22 Ianuarie, Marţi

    Timp Temperatura Precipitaţii Vânt Presiune Umiditate
    00:00 +2°C° 0.8 mm 9 m/s 747 mmHg 88%
    01:00 +1°C° 0.6 mm 8 m/s 747 mmHg 86%
    02:00 +1°C° 0.6 mm 6 m/s 746 mmHg 84%
    03:00 -1°C° 0.6 mm 4 m/s 746 mmHg 82%
    04:00 -1°C° 0 mm 4 m/s 746 mmHg 83%
    05:00 -2°C° 0 mm 4 m/s 745 mmHg 85%
    06:00 -2°C° 0 mm 4 m/s 745 mmHg 86%
    07:00 -2°C° 0 mm 4 m/s 745 mmHg 85%
    08:00 -2°C° 0 mm 4 m/s 745 mmHg 85%
    09:00 -2°C° 0 mm 4 m/s 744 mmHg 84%
    10:00 -1°C° 0 mm 5 m/s 744 mmHg 80%
    11:00 0°C° 0 mm 5 m/s 744 mmHg 76%
    12:00 +1°C° 0 mm 6 m/s 744 mmHg 72%
    13:00 +1°C° 0.2 mm 5 m/s 744 mmHg 73%
    14:00 +1°C° 0.2 mm 5 m/s 744 mmHg 75%
    15:00 0°C° 0.2 mm 5 m/s 744 mmHg 76%
    16:00 0°C° 0.1 mm 5 m/s 744 mmHg 78%
    17:00 -1°C° 0.1 mm 4 m/s 744 mmHg 80%
    18:00 -2°C° 0.1 mm 4 m/s 745 mmHg 83%
    19:00 -2°C° 0 mm 4 m/s 745 mmHg 83%
    20:00 -2°C° 0 mm 4 m/s 745 mmHg 83%
    21:00 -3°C° 0 mm 4 m/s 746 mmHg 84%
    22:00 -2°C° 0 mm 3 m/s 746 mmHg 84%
    23:00 -2°C° 0 mm 3 m/s 746 mmHg 85%

    23 Ianuarie, Miercuri

    Timp Temperatura Precipitaţii Vânt Presiune Umiditate
    00:00 -2°C° 0 mm 3 m/s 746 mmHg 85%
    01:00 -2°C° 0 mm 3 m/s 746 mmHg 85%
    02:00 -2°C° 0 mm 3 m/s 746 mmHg 86%
    03:00 -2°C° 0 mm 3 m/s 747 mmHg 86%
    04:00 -2°C° 0 mm 3 m/s 747 mmHg 87%
    05:00 -2°C° 0 mm 3 m/s 747 mmHg 87%
    06:00 -2°C° 0 mm 3 m/s 747 mmHg 88%
    07:00 -2°C° 0 mm 3 m/s 748 mmHg 88%
    08:00 -1°C° 0 mm 3 m/s 748 mmHg 88%
    09:00 -1°C° 0 mm 3 m/s 749 mmHg 87%
    10:00 0°C° 0 mm 3 m/s 749 mmHg 82%
    11:00 +1°C° 0 mm 3 m/s 749 mmHg 77%
    12:00 +3°C° 0 mm 4 m/s 749 mmHg 71%
    13:00 +3°C° 0 mm 3 m/s 749 mmHg 73%
    14:00 +3°C° 0 mm 3 m/s 750 mmHg 75%
    15:00 +4°C° 0 mm 2 m/s 750 mmHg 77%
    16:00 +3°C° 0 mm 2 m/s 750 mmHg 81%
    17:00 +1°C° 0 mm 3 m/s 750 mmHg 85%
    18:00 0°C° 0 mm 3 m/s 751 mmHg 89%
    19:00 0°C° 0 mm 3 m/s 751 mmHg 89%
    20:00 -1°C° 0 mm 3 m/s 752 mmHg 90%
    21:00 -1°C° 0 mm 3 m/s 752 mmHg 91%
    22:00 -1°C° 0 mm 3 m/s 752 mmHg 91%
    23:00 -1°C° 0 mm 3 m/s 753 mmHg 91%

    24 Ianuarie, Joi

    Timp Temperatura Precipitaţii Vânt Presiune Umiditate
    00:00 -1°C° 0 mm 3 m/s 753 mmHg 92%
    01:00 -1°C° 0 mm 3 m/s 753 mmHg 92%
    02:00 -1°C° 0 mm 3 m/s 753 mmHg 91%
    03:00 -1°C° 0 mm 3 m/s 753 mmHg 91%
    04:00 -1°C° 0 mm 3 m/s 754 mmHg 92%
    05:00 -1°C° 0 mm 3 m/s 754 mmHg 92%
    06:00 -1°C° 0 mm 3 m/s 754 mmHg 92%
    07:00 -1°C° 0 mm 3 m/s 755 mmHg 92%
    08:00 0°C° 0 mm 3 m/s 755 mmHg 92%
    09:00 0°C° 0 mm 3 m/s 756 mmHg 92%
    10:00 +1°C° 0 mm 3 m/s 756 mmHg 89%
    11:00 +2°C° 0 mm 3 m/s 756 mmHg 86%
    12:00 +3°C° 0 mm 3 m/s 756 mmHg 82%
    13:00 +5°C° 0 mm 2 m/s 757 mmHg 83%
    14:00 +5°C° 0 mm 2 m/s 757 mmHg 84%
    15:00 +6°C° 0 mm 1 m/s 757 mmHg 85%
    16:00 +4°C° 0 mm 1 m/s 757 mmHg 87%
    17:00 +2°C° 0 mm 0 m/s 758 mmHg 89%
    18:00 +1°C° 0 mm 0 m/s 758 mmHg 91%
    19:00 +1°C° 0 mm 0 m/s 759 mmHg 91%
    20:00 +1°C° 0 mm 0 m/s 759 mmHg 92%
    21:00 +2°C° 0 mm 1 m/s 760 mmHg 92%
    22:00 +2°C° 0 mm 1 m/s 760 mmHg 92%
    23:00 +1°C° 0 mm 1 m/s 760 mmHg 93%

    25 Ianuarie, Vineri

    Timp Temperatura Precipitaţii Vânt Presiune Umiditate
    00:00 -1°C° 0 mm 2 m/s 760 mmHg 93%
    01:00 +1°C° 0 mm 2 m/s 760 mmHg 93%
    02:00 +1°C° 0 mm 2 m/s 760 mmHg 93%
    03:00 +1°C° 0 mm 2 m/s 760 mmHg 93%
    04:00 +2°C° 0 mm 2 m/s 760 mmHg 92%
    05:00 +2°C° 0 mm 2 m/s 760 mmHg 91%
    06:00 +1°C° 0 mm 3 m/s 760 mmHg 90%
    07:00 +2°C° 0.1 mm 3 m/s 760 mmHg 91%
    08:00 +2°C° 0.1 mm 3 m/s 761 mmHg 92%
    09:00 +2°C° 0.1 mm 3 m/s 761 mmHg 93%
    10:00 +3°C° 0 mm 3 m/s 761 mmHg 93%
    11:00 +4°C° 0 mm 3 m/s 761 mmHg 93%
    12:00 +5°C° 0 mm 3 m/s 761 mmHg 93%
    13:00 +5°C° 0 mm 3 m/s 761 mmHg 94%
    14:00 +7°C° 0 mm 2 m/s 761 mmHg 95%
    15:00 +7°C° 0 mm 2 m/s 760 mmHg 95%
    16:00 +7°C° 0 mm 2 m/s 760 mmHg 96%
    17:00 +6°C° 0 mm 2 m/s 760 mmHg 96%
    18:00 +6°C° 0 mm 2 m/s 761 mmHg 96%
    19:00 +5°C° 0 mm 2 m/s 760 mmHg 96%
    20:00 +5°C° 0 mm 2 m/s 760 mmHg 95%
    21:00 +4°C° 0 mm 3 m/s 760 mmHg 95%
    22:00 +4°C° 0 mm 3 m/s 760 mmHg 95%
    23:00 +3°C° 0 mm 3 m/s 760 mmHg 94%
    Arată mai mult